Location: Abraham Lincoln Continuation High School
(33.9711°N, 117.3662°W)
Time: 16:08:59
(UTC+00:00)

NOSS 3-4 (A) - Visible Passes

Search period start: 30 November 2021 00:00
Search period end: 10 December 2021 00:00
Orbit: 861 x 1351 km, 63.4° (Epoch: 28 November)

Date Brightness Start Highest point End Pass type
(mag) Time Alt. Az. Time Alt. Az. Time Alt. Az.
07 Dec 6.1 03:52:09 10° NNW 03:52:16 10° NNW 03:52:16 10° NNW visible
08 Dec 5.7 03:07:53 10° N 03:09:10 14° N 03:09:10 14° N visible
09 Dec 5.5 02:23:59 10° N 02:26:10 15° NNE 02:26:10 15° NNE visible
09 Dec 6.0 04:12:58 10° NNW 04:13:37 13° NNW 04:13:37 13° NNW visible
